This demonstration page uses our WeatherBlox Daily Observations layout. Learn more.

Hourly Observations for January 24, 2021

Temp ( °F °C ) Dew Point ( °F °C ) Humidity (%) Winds ( mph kmh ) Pressure ( in mb ) Visibility ( mi km ) Precip ( " mm )
12:53 am 00:53 Mostly Cloudy 54 12.2 47 8.3 77 77 E 5 7 30.1 1019 10 16.0934 0 0
1:53 am 01:53 Mostly Cloudy 53 11.7 47 8.3 80 80 E 8 13 30.09 1019 10 16.0934 0 0
2:53 am 02:53 Mostly Cloudy 53 11.7 46 7.8 77 77 ESE 7 11 30.09 1019 10 16.0934 0 0
3:53 am 03:53 Partly Cloudy 52 11.1 45 7.2 77 77 S 6 9 30.07 1018 10 16.0934 0 0
4:53 am 04:53 Cloudy 54 12.2 46 7.8 75 75 SSE 9 15 30.05 1018 10 16.0934 0 0
5:53 am 05:53 Mostly Cloudy 55 12.8 48 8.9 77 77 SSE 8 13 30.04 1017 10 16.0934 0 0
6:53 am 06:53 Cloudy 57 13.9 51 10.6 81 81 SSE 8 13 30.05 1018 10 16.0934 0.001 0.001
7:07 am 07:07 Cloudy with Light Rain 57 13.9 52 11.1 83 83 SSE 8 13 30.04 1017 9 14.48406 0.001 0.001
7:30 am 07:30 Cloudy with Light Rain 57 13.9 52 11.1 83 83 SE 7 11 30.03 1017 10 16.0934 0.001 0.001
7:45 am 07:45 Cloudy 58 14.4 53 11.7 84 84 S 7 11 30.05 1018 10 16.0934 0.01 0.254
7:53 am 07:53 Cloudy 58 14.4 53 11.7 84 84 SSE 8 13 30.06 1018 10 16.0934 0.01 0.254
8:44 am 08:44 Cloudy with Heavy Rain 57 13.9 54 12.2 90 90 S 6 9 30.07 1018 2 3.21868 0.04 1.016
8:53 am 08:53 Cloudy with Heavy Rain 57 13.9 54 12.2 90 90 S 3 6 30.09 1019 1 1.60934 0.1 2.54
9:18 am 09:18 Cloudy with Light Rain 57 13.9 55 12.8 93 93 SSE 7 11 30.06 1018 3 4.82802 0.07 1.778
9:48 am 09:48 Cloudy with Rain 57 14 55 13 94 94 SSE 8 13 30.07 1018 1.75 2.816345 0.09 2.286
9:53 am 09:53 Cloudy with Rain 58 14.4 56 13.3 93 93 SSE 7 11 30.09 1019 1.25 2.011675 0.11 2.794
10:11 am 10:11 Cloudy with Light Rain 58 14.4 56 13.3 93 93 SSE 7 11 30.07 1018 3 4.82802 0.02 0.508
10:18 am 10:18 Cloudy with Light Rain 58 14.4 56 13.3 93 93 SSE 8 13 30.07 1018 5 8.0467 0.02 0.508
10:44 am 10:44 Cloudy with Light Rain 59 15 56 13.3 90 90 S 7 11 30.07 1018 7 11.26538 0.02 0.508
10:53 am 10:53 Cloudy with Light Rain 59 15 57 13.9 93 93 SSE 8 13 30.09 1019 5 8.0467 0.03 0.762
11:53 am 11:53 Cloudy 61 16.1 58 14.4 90 90 SSE 7 11 30.05 1018 7 11.26538 0.001 0.001
12:53 pm 12:53 Cloudy 65 18.3 61 16.1 87 87 SSE 7 11 30.01 1016 10 16.0934 0 0
1:08 pm 13:08 Mostly Cloudy 65 18.3 62 16.7 90 90 S 7 11 29.99 1016 10 16.0934 0 0
1:53 pm 13:53 Partly Cloudy 67 19.4 63 17.2 87 87 S 7 11 29.99 1016 10 16.0934 0.001 0.001
2:10 pm 14:10 Mostly Cloudy 67 19.4 63 17.2 87 87 S 7 11 29.97 1015 10 16.0934 0 0
2:53 pm 14:53 Cloudy 69 20.6 63 17.2 81 81 S 8 13 29.99 1016 10 16.0934 0 0
3:53 pm 15:53 Cloudy 70 21.1 63 17.2 79 79 SSW 3 6 29.99 1016 10 16.0934 0 0
4:53 pm 16:53 Cloudy 69 20.6 63 17.2 81 81 S 5 7 29.99 1016 10 16.0934 0 0
5:53 pm 17:53 Cloudy 68 20 62 16.7 81 81 SE 8 13 29.96 1015 10 16.0934 0.001 0.001
6:30 pm 18:30 Partly Cloudy 67 19.4 62 16.7 84 84 SSE 5 7 29.93 1013 10 16.0934 0 0
6:50 pm 18:50 Mostly Cloudy 66 19 63 17 88 88 S 5 7 29.95 1014 10 16.0934 0 0
6:53 pm 18:53 Mostly Cloudy 66 18.9 62 16.7 87 87 S 3 6 29.97 1015 10 16.0934 0 0
7:53 pm 19:53 Cloudy 65 18.3 62 16.7 90 90 SSE 5 7 29.96 1014 8 12.87472 0 0
8:17 pm 20:17 Partly Cloudy with Mist and Fog 63 17.2 60 15.6 90 90 ESE 6 9 29.93 1014 5 8.0467 0 0
8:53 pm 20:53 Mostly Clear with Mist and Fog 63 17.2 60 15.6 90 90 Calm 29.96 1014 3 4.82802 0 0
9:40 pm 21:40 Mostly Cloudy with Mist and Fog 62 16.7 60 15.6 93 93 Calm 29.93 1014 3 4.82802 0 0
9:53 pm 21:53 Cloudy with Mist and Fog 63 17.2 60 15.6 90 90 ESE 8 13 29.93 1014 4 6.43736 0 0
10:25 pm 22:25 Partly Cloudy 65 18.3 62 16.7 90 90 SSE 8 13 29.91 1013 8 12.87472 0 0
10:53 pm 22:53 Mostly Clear 66 18.9 62 16.7 87 87 SSE 9 15 29.91 1013 7 11.26538 0 0
11:53 pm 23:53 Clear 67 19.4 63 17.2 87 87 SSE 10 17 29.91 1013 9 14.48406 0 0

Powered by AerisWeather